Temperature
18 18 18 18 18 18 18 18 18 18 18 19 19 19 18 18 18 18 18 17 17 17 17 17 17 16 16 16 16 16 16 16 16 15 15 15 15 15
17 17 17 17 18 18 18 18 18 18 18 18 18 18 18 18 18 18 17 17 17 17 17 17 17 17 16 16 16 16 16 16 15 15 15 15 15 15
17 17 17 17 17 17 18 18 18 18 18 18 18 18 18 18 18 17 17 17 17 17 17 17 17 16 16 16 16 16 16 15 15 15 15 15 15 15
17 17 17 17 17 17 17 17 17 17 17 17 17 17 17 17 17 17 17 17 17 17 17 16 16 16 16 16 16 16 15 15 15 15 15 15 15 14
17 17 17 16 17 17 17 17 17 17 17 17 17 17 17 17 17 16 16 16 16 16 16 16 16 16 16 16 15 15 15 15 15 15 15 14 14 14
16 16 16 16 16 16 16 16 16 16 16 16 16 16 16 16 16 16 16 16 16 16 16 16 16 15 15 15 15 15 15 15 14 14 14 14 14 14
16 16 16 16 16 16 16 16 16 16 16 16 15 16 16 16 16 16 15 15 15 15 15 15 15 15 15 15 15 15 14 14 14 14 14 13 13 13
15 15 15 15 15 15 15 15 15 15 15 15 15 15 15 15 15 15 15 15 15 15 15 15 14 14 14 14 14 14 14 14 13 13 13 13 13 13
15 15 15 15 15 15 15 15 15 15 14 14 14 14 14 14 14 14 14 14 14 14 14 14 14 14 14 14 14 13 13 13 13 13 12 12 12 12
15 15 14 14 14 14 14 14 14 14 14 14 14 13 13 13 13 13 13 13 13 13 13 13 13 13 13 13 13 13 13 12 12 12 12 12 11 11
14 14 14 14 14 14 13 13 13 13 13 13 13 13 13 13 13 12 12 12 12 12 12 12 12 12 12 12 12 12 12 12 11 11 11 11 11 11
13 13 13 13 13 13 13 13 13 13 13 12 12 12 12 12 12 11 11 11 11 11 11 11 11 11 11 11 11 11 11 11 11 11 10 10 10 10
13 13 12 12 12 12 12 12 12 12 12 12 12 12 11 11 11 11 10 10 10 10 10 10 10 10 9 9 10 10 10 10 10 10 10 9 9 9
12 12 12 12 12 12 12 11 11 11 11 11 11 11 10 10 10 10 10 10 10 10 9 9 9 9 9 9 9 9 9 9 9 9 9 9 9 9
11 11 11 11 11 11 11 11 10 10 10 10 10 10 10 9 9 9 9 9 9 9 9 9 9 8 8 8 8 8 8 8 8 8 8 8 8 8
11 11 11 10 10 10 10 10 9 9 9 9 9 9 9 9 9 8 8 8 8 8 8 8 8 8 8 8 8 8 8 8 8 8 8 8 8 8
10 10 10 10 10 9 9 9 9 9 8 8 8 8 8 8 8 8 8 8 8 8 8 8 8 8 7 7 7 7 7 7 7 7 7 7 7 7
10 9 9 9 9 9 8 8 8 8 7 7 7 7 7 7 7 7 7 7 7 7 7 7 7 7 7 7 7 7 7 7 7 6 6 6 6 6
9 9 8 8 8 8 7 7 7 7 7 7 7 6 6 6 6 6 6 6 6 6 6 6 6 6 6 6 6 6 6 6 6 6 6 6 6 6
8 8 7 7 7 7 7 6 6 6 6 6 6 6 6 6 5 5 5 5 5 5 5 6 6 5 5 5 5 6 6 6 6 6 6 6 6 6
7 7 7 6 6 6 6 6 6 5 5 5 5 5 5 5 5 5 5 5 5 5 5 5 5 5 5 5 5 6 6 6 5 5 5 5 5 5
6 6 6 6 5 5 5 5 5 5 5 4 4 4 4 4 4 4 4 4 4 4 4 4 5 5 5 5 5 5 5 5 6 5 5 5 5 5
6 5 5 5 5 5 5 5 4 4 4 4 4 4 4 4 4 4 4 4 4 4 4 4 4 5 5 5 5 5 5 5 5 5 5 5 5 5
Wind_Speed
6 6 5 4 4 3 2 1 2 2 3 4 2 3 5 7 13 14 12 19 21 21 20 19 18 18 17 17 16 16 16 16 16 16 16 16 16 16
4 4 4 4 3 3 2 2 2 2 3 3 3 2 2 4 10 10 9 16 21 21 20 20 19 18 18 17 17 17 17 17 17 17 16 16 16 16
5 5 5 3 3 3 2 2 2 2 2 3 2 1 2 1 3 5 8 10 13 19 20 21 20 19 19 18 18 17 17 16 16 16 16 16 16 16
5 4 4 4 4 3 3 3 2 2 2 3 2 2 2 2 3 4 5 7 7 13 19 20 20 20 19 19 18 18 17 16 16 15 15 15 15 15
4 4 4 4 4 4 3 3 2 2 2 2 3 2 2 2 2 3 4 3 6 8 13 17 18 19 19 18 18 17 16 15 15 15 15 15 15 15
3 3 3 3 4 4 3 2 2 3 3 2 3 3 2 1 0 1 3 2 3 5 3 7 11 15 17 17 16 16 16 16 15 15 14 14 14 14
2 2 2 2 1 1 1 1 2 1 2 3 3 2 2 1 1 2 3 3 3 2 2 2 3 5 8 11 14 15 16 15 15 14 14 14 14 15
1 1 1 1 2 2 2 2 1 1 1 2 2 2 2 2 2 3 3 3 3 2 2 4 2 3 3 5 8 12 14 14 14 14 14 14 15 15
2 2 1 2 3 1 1 2 1 1 1 1 2 3 3 3 3 3 3 4 4 4 3 4 3 3 2 4 5 7 10 12 13 14 14 15 15 16
5 4 3 4 4 4 2 1 1 1 0 1 0 1 1 2 2 3 4 5 5 3 2 3 3 3 4 4 7 8 9 11 12 14 15 16 16 17
6 6 6 6 7 7 3 3 2 2 3 2 1 1 1 3 3 2 3 4 5 4 3 2 3 4 4 4 6 7 8 10 12 13 15 16 17 16
5 7 10 8 9 8 4 4 3 3 3 2 1 2 2 2 2 2 3 4 4 4 4 4 4 4 4 3 3 5 7 9 12 13 14 15 16 10
6 6 6 10 10 10 7 5 4 3 3 3 2 2 2 3 3 4 3 3 3 4 4 4 4 4 4 5 5 4 4 4 5 7 10 12 13 10
7 6 5 8 8 8 7 6 7 6 3 4 4 4 4 4 4 4 4 4 3 4 5 3 3 4 5 6 6 5 4 4 3 4 5 9 10 12
6 6 5 5 5 4 6 7 7 6 5 5 5 5 4 3 3 3 3 4 5 7 7 4 3 3 4 6 6 6 6 5 4 4 4 4 5 5
5 4 3 3 3 4 5 5 5 6 5 5 5 4 5 5 4 4 4 4 4 4 5 6 5 4 5 6 6 6 6 5 5 5 4 4 4 4
3 2 3 3 4 4 5 5 5 6 6 5 4 5 5 5 5 5 4 5 5 5 5 5 6 6 5 6 5 5 5 5 5 6 5 6 5 4
5 5 5 6 6 6 6 6 5 5 5 5 5 5 5 5 5 5 5 5 5 6 6 6 6 6 6 5 4 5 5 6 6 6 6 6 6 4
6 6 6 6 6 6 6 6 5 5 5 5 5 5 5 5 5 6 6 6 6 6 6 6 5 6 8 8 6 6 6 6 6 6 5 5 6 5
6 7 6 6 6 6 6 6 5 5 6 6 6 6 6 6 6 6 6 7 7 7 7 6 5 6 6 8 8 8 9 6 5 6 6 6 5 5
7 7 7 6 6 5 5 5 5 5 6 6 6 7 7 7 7 7 7 9 7 6 7 7 6 8 7 6 6 6 5 8 7 5 6 6 6 5
6 6 6 6 5 5 5 5 6 6 7 7 7 7 7 7 7 8 7 7 7 7 8 8 8 7 6 7 8 7 7 6 8 9 6 5 4 4
6 5 5 6 6 5 6 7 7 7 7 7 7 7 7 6 6 6 7 7 7 8 8 8 8 7 7 7 7 7 8 8 6 6 5 7 8 9
Wind_Direction
223 226 226 249 261 269 268 233 227 256 267 254 223 206 187 174 172 187 193 202 208 213 217 221 225 228 232 236 240 241 242 243 245 247 249 251 253 255
212 226 223 242 260 264 263 252 231 235 259 267 249 230 200 191 178 197 211 203 208 214 218 222 226 229 232 236 240 241 243 244 246 247 249 251 254 256
208 212 214 231 267 278 262 250 242 226 257 276 269 252 214 197 175 225 224 205 213 216 218 221 224 228 231 234 237 240 243 246 248 250 252 254 256 259
202 204 208 218 229 259 277 265 247 232 235 265 299 292 243 210 204 233 249 238 224 221 219 221 224 227 231 234 237 240 242 244 248 251 253 256 258 261
196 199 208 223 233 240 248 276 289 279 238 241 260 267 261 249 233 248 259 270 261 244 222 221 225 229 233 237 239 240 240 242 245 249 253 256 259 261
191 198 204 221 230 238 239 256 273 288 293 284 275 275 272 278 269 277 283 288 283 279 266 228 228 234 237 238 239 238 239 241 244 247 251 255 259 262
166 178 178 170 162 211 242 249 268 279 294 290 286 300 308 336 337 309 293 299 299 300 322 284 245 238 237 240 238 237 237 239 242 245 250 255 260 264
142 152 134 97 119 140 134 102 92 207 289 304 305 307 319 340 341 327 326 323 307 317 325 298 275 254 244 236 227 229 232 236 241 247 252 257 260 264
101 90 1 23 43 0 183 163 115 107 195 279 318 319 332 349 339 327 318 309 288 289 291 282 289 285 279 262 237 238 236 238 242 245 249 254 258 263
73 72 71 52 21 8 5 46 62 32 247 211 33 324 335 341 330 313 302 300 291 295 308 290 308 311 314 291 270 251 245 245 246 249 253 256 260 264
73 65 66 61 31 26 36 40 38 38 67 86 133 243 295 318 334 334 331 322 314 318 350 330 324 322 317 315 311 285 273 264 263 263 265 267 268 271
80 70 61 55 38 28 33 36 29 3 355 344 295 280 283 320 334 339 351 342 332 328 359 353 337 337 316 314 328 309 289 282 278 276 276 276 276 274
76 71 59 53 48 40 40 40 21 338 323 329 358 24 28 33 37 24 23 10 347 323 333 343 329 328 311 310 310 306 311 311 304 296 290 285 280 266
77 77 74 63 56 47 46 28 14 3 4 29 41 37 33 31 17 6 2 352 318 293 296 301 297 309 312 307 304 306 311 314 315 307 308 307 296 285
79 88 85 66 52 48 44 24 22 28 26 30 26 22 19 13 357 349 346 331 307 299 303 295 291 307 306 303 306 312 315 309 301 302 306 307 305 303
75 82 75 42 27 30 36 39 44 41 32 29 21 13 7 4 1 353 345 341 331 322 329 340 330 312 299 294 297 300 305 307 314 316 314 309 307 304
45 67 69 65 58 53 49 47 43 38 32 18 13 12 8 2 354 352 349 343 338 337 341 337 333 322 298 295 305 311 316 317 320 323 321 314 307 306
48 59 56 48 44 43 41 39 39 34 21 13 15 13 5 355 350 347 344 345 343 339 337 336 337 333 327 318 314 319 320 319 316 312 312 312 310 315
59 61 57 50 41 37 35 30 26 28 21 12 7 3 357 354 354 353 352 352 346 339 335 335 341 342 334 328 327 325 313 310 311 312 312 309 306 307
59 58 55 51 45 36 31 24 21 23 19 7 6 5 2 358 357 354 353 352 340 334 334 337 342 342 326 312 306 306 309 310 313 310 311 309 305 301
57 52 48 46 40 34 27 21 22 24 18 10 14 7 4 359 357 351 346 344 339 336 336 332 324 311 298 298 303 308 318 325 318 302 304 308 310 311
50 51 48 45 40 30 27 22 20 24 19 13 10 4 2 360 353 346 345 343 341 339 332 324 320 319 318 317 316 317 323 327 326 320 304 288 297 308
45 41 47 44 38 28 24 22 23 22 17 8 1 355 353 348 340 339 340 342 339 336 333 330 329 325 323 321 321 324 329 330 329 329 332 335 321 301
Height
1545 1547 1548 1550 1552 1554 1555 1555 1556 1556 1556 1556 1557 1557 1558 1558 1558 1559 1559 1559 1560 1560 1560 1560 1560 1561 1561 1561 1561 1561 1561 1561 1561 1561 1561 1561 1561 1561
1541 1543 1545 1547 1549 1550 1551 1552 1553 1554 1553 1553 1554 1554 1555 1556 1555 1556 1556 1556 1556 1556 1557 1557 1557 1556 1556 1557 1557 1557 1557 1556 1556 1556 1556 1556 1556 1556
1537 1539 1541 1543 1545 1546 1548 1549 1549 1550 1550 1550 1551 1551 1551 1552 1552 1552 1552 1551 1552 1552 1552 1552 1552 1552 1552 1552 1552 1552 1551 1551 1551 1551 1551 1550 1550 1550
1534 1536 1538 1539 1541 1543 1544 1545 1546 1546 1547 1547 1547 1547 1548 1548 1548 1548 1548 1548 1548 1547 1547 1547 1547 1547 1547 1547 1546 1546 1546 1546 1545 1545 1545 1545 1544 1544
1531 1533 1534 1536 1537 1539 1540 1541 1542 1542 1543 1543 1543 1544 1544 1544 1544 1544 1544 1544 1544 1544 1543 1542 1542 1542 1542 1541 1541 1541 1540 1540 1540 1539 1539 1538 1537 1537
1528 1529 1530 1532 1534 1535 1536 1537 1538 1539 1539 1539 1540 1540 1541 1540 1540 1540 1540 1541 1540 1540 1539 1538 1538 1537 1537 1536 1536 1536 1535 1534 1534 1533 1532 1532 1531 1530
1524 1526 1528 1529 1531 1532 1533 1534 1534 1535 1535 1536 1536 1536 1537 1537 1537 1537 1536 1536 1536 1535 1534 1534 1533 1532 1532 1531 1531 1530 1530 1529 1528 1527 1526 1525 1524 1523
1522 1523 1525 1527 1528 1529 1530 1531 1531 1532 1532 1532 1533 1533 1533 1533 1533 1533 1532 1532 1531 1531 1530 1529 1529 1528 1527 1526 1526 1525 1524 1524 1523 1522 1520 1519 1518 1516
1520 1521 1522 1524 1525 1526 1527 1527 1528 1528 1529 1529 1529 1529 1530 1529 1529 1528 1528 1528 1527 1527 1526 1525 1525 1524 1523 1522 1521 1520 1519 1518 1517 1516 1514 1513 1511 1509
1519 1520 1521 1522 1523 1524 1524 1524 1525 1525 1526 1526 1526 1526 1527 1526 1525 1525 1525 1524 1524 1524 1523 1522 1520 1519 1518 1517 1517 1515 1514 1513 1512 1510 1508 1506 1505 1503
1518 1519 1520 1520 1521 1521 1522 1522 1523 1523 1523 1524 1524 1523 1523 1523 1523 1522 1521 1521 1520 1520 1520 1518 1516 1515 1514 1513 1512 1510 1509 1508 1506 1504 1503 1501 1499 1496
1518 1519 1519 1520 1520 1521 1521 1521 1521 1521 1522 1522 1522 1521 1521 1521 1520 1520 1519 1518 1517 1517 1516 1515 1513 1511 1509 1508 1507 1506 1504 1503 1501 1499 1497 1495 1493 1490
1518 1519 1519 1520 1520 1520 1520 1520 1520 1521 1521 1520 1520 1520 1519 1519 1518 1517 1516 1516 1515 1514 1513 1511 1510 1508 1507 1504 1502 1501 1500 1498 1496 1494 1492 1490 1488 1485
1518 1519 1520 1520 1520 1520 1520 1520 1520 1520 1519 1519 1518 1518 1518 1517 1516 1515 1514 1513 1513 1512 1510 1509 1507 1505 1503 1500 1498 1497 1495 1493 1491 1488 1486 1484 1482 1480
1519 1520 1521 1521 1521 1521 1521 1521 1520 1519 1518 1518 1518 1518 1517 1516 1515 1514 1513 1511 1510 1510 1508 1506 1505 1502 1501 1498 1495 1493 1490 1488 1486 1484 1481 1479 1477 1475
1521 1521 1522 1522 1522 1522 1521 1521 1521 1520 1519 1519 1518 1517 1516 1515 1514 1512 1511 1510 1508 1507 1506 1504 1502 1499 1497 1495 1492 1489 1487 1485 1482 1479 1477 1474 1472 1470
1522 1522 1523 1523 1523 1523 1523 1522 1521 1521 1520 1519 1519 1517 1516 1514 1513 1511 1510 1508 1507 1505 1503 1501 1499 1497 1494 1492 1489 1486 1483 1481 1478 1476 1472 1469 1467 1465
1524 1524 1524 1525 1525 1524 1524 1523 1522 1521 1521 1520 1519 1517 1516 1514 1513 1511 1509 1507 1505 1503 1501 1498 1496 1493 1491 1489 1488 1484 1481 1478 1475 1472 1469 1466 1462 1461
1526 1526 1526 1526 1526 1525 1524 1524 1523 1522 1521 1520 1519 1518 1516 1514 1513 1511 1508 1506 1504 1502 1500 1497 1495 1492 1489 1486 1483 1482 1478 1475 1471 1468 1466 1463 1459 1456
1528 1528 1528 1528 1527 1526 1526 1525 1524 1523 1521 1520 1519 1517 1516 1514 1512 1510 1508 1506 1503 1501 1498 1496 1493 1491 1488 1485 1481 1478 1476 1473 1469 1465 1462 1459 1456 1453
1530 1530 1530 1529 1528 1528 1527 1526 1525 1523 1522 1520 1518 1517 1515 1513 1511 1509 1507 1505 1503 1500 1497 1495 1492 1489 1486 1483 1480 1476 1473 1471 1467 1463 1459 1456 1452 1449
1532 1532 1531 1530 1529 1529 1527 1526 1525 1523 1521 1520 1518 1516 1514 1512 1510 1508 1506 1504 1501 1499 1496 1493 1490 1487 1484 1481 1477 1474 1470 1467 1464 1461 1458 1455 1451 1447
1534 1533 1533 1531 1530 1529 1528 1526 1525 1523 1521 1519 1517 1515 1513 1511 1510 1508 1505 1503 1500 1497 1494 1491 1488 1485 1482 1479 1476 1472 1469 1465 1461 1458 1455 1452 1450 1446